Regional Weather Roundup
Issued by NWS Wilmington, NC

Home | Current Version | Previous Version | Text Only | Print | Product List | Glossary On
Versions: 1 2 3 4 5 6 7 8 9 10 11 12 13 14 15 16 17 18 19 20 21 22 23 24 25 26 27 28
000
ASUS42 KILM 161512
RWRILM
RWRILM
REGIONAL HOURLY WEATHER ROUNDUP
NATIONAL WEATHER SERVICE WILMINGTON NC
1000 AM EST MON JAN 16 2017

NOTE: "FAIR" INDICATES FEW OR NO CLOUDS BELOW 12,000 FEET WITH NO
SIGNIFICANT WEATHER AND/OR OBSTRUCTIONS TO VISIBILITY.

...............WFO WILMINGTON COUNTY WARNING AREA...............

......COASTAL NC AND SC COUNTIES......

CITY           SKY/WX    TMP DP  RH WIND       PRES   REMARKS
WILMINGTON     CLOUDY    49  40  71 N7        30.43R
N MYRTLE BEACH CLOUDY    53  49  86 NE12      30.40R
MYRTLE BEACH   CLOUDY    54  48  82 NE12      30.42R FOG

......INLAND NC AND SC COUNTIES.......

CITY           SKY/WX    TMP DP  RH WIND       PRES   REMARKS
LUMBERTON      CLOUDY    48  44  86 E8        30.42R
ELIZABETHTOWN  CLOUDY    47  39  73 N5        30.43R
WHITEVILLE     CLOUDY    47  45  91 NE6       30.43R FOG
FLORENCE       FOG       51  51 100 NE6       30.42R VSB 1/2
DARLINGTON     CLOUDY    48  48 100 E7        30.43R FOG
KINGSTREE      CLOUDY    52  52 100 NE5       30.39S FOG
HARTSVILLE     CLOUDY    48  48 100 E6        30.41R VSB 1/2
BENNETTSVILLE  CLOUDY    50  50 100 NE6       30.42R
CONWAY         CLOUDY    50  50 100 N7        30.41R FOG
GEORGETOWN     CLOUDY    52  52 100 NE6       30.40R FOG
MARION         CLOUDY    46  46 100 E8        30.42R FOG

....................REST OF NORTH CAROLINA......................

.........EASTERN NC.........

CITY           SKY/WX    TMP DP  RH WIND       PRES   REMARKS
CAPE HATTERAS  CLOUDY    50  43  77 VRB6      30.43R
JACKSONVILLE   CLOUDY    47  39  74 NE8       30.44R
MOREHEAD CITY  CLOUDY    49  41  74 NE10      30.43R
KENANSVILLE    CLOUDY    46  37  71 NE5       30.45R
NEW BERN       CLOUDY    46  40  79 NE5       30.46R
ELIZABETH CITY CLOUDY    42  39  89 N7        30.48R

.........CENTRAL NC.........

CITY           SKY/WX    TMP DP  RH WIND       PRES   REMARKS
RALEIGH DURHAM CLOUDY    45  23  42 E6        30.45R
ROCKY MOUNT    CLOUDY    43  32  65 NE3       30.46R
ROANOKE RAPIDS NOT AVBL
FAYETTEVILLE   CLOUDY    47  35  63 E6        30.44R
HOFFMAN        CLOUDY    44  42  92 E8        30.43R FOG

.........WESTERN NC.........

CITY           SKY/WX    TMP DP  RH WIND       PRES   REMARKS
CHARLOTTE      CLOUDY    52  46  80 VRB7      30.42R
GREENSBORO     CLOUDY    46  37  71 E5        30.43R
HICKORY        NOT AVBL
BOONE          NOT AVBL
ASHEVILLE      NOT AVBL

.....................REST OF SOUTH CAROLINA.....................

.........EASTERN SC.........

CITY           SKY/WX    TMP DP  RH WIND       PRES   REMARKS
CHARLESTON     FOG       58  57  97 E6        30.37R VSB 1/4
BEAUFORT MCAS  CLOUDY    58  56  93 NE5       30.36R
HILTON HEAD    PTSUNNY   61  61 100 E5        30.36R

.........CENTRAL SC.........

CITY           SKY/WX    TMP DP  RH WIND       PRES   REMARKS
COLUMBIA       CLOUDY    56  54  93 E6        30.38R FOG
ORANGEBURG     FOG       55  55 100 E6        30.38R VSB 1/2
SUMTER SHAW    CLOUDY    54  54 100 NE10      30.37S FOG

.........WESTERN SC.........

CITY           SKY/WX    TMP DP  RH WIND       PRES   REMARKS
GREENVILLE     NOT AVBL
ROCK HILL      CLOUDY    52  47  83 E5        30.41R
ANDERSON       CLOUDY    55  52  89 NE8       30.38R
CLEMSON        NOT AVBL
GREENWOOD      CLOUDY    53  51  93 NE6       30.39R FOG


...................COASTAL AND OFFSHORE REPORTS..................

................LOCAL PIERS AND NC RESERVE................


STATION/POSITION TIME  SKY/WX   TEMP    WIND        PRES    VSBY
                                AIR SEA DIR/SP/G
                 (UTC)          (F)     (DEG/KT/KT) (MB)    (MI)
JOHNY MRCER PIER 1448                    30/  8/  9   N/A
NC RESRV MASNBRO 1345            48      60/  5     1028.0
OCEAN CREST PIER NOT AVBL
SPRINGMAID  PIER NOT AVBL


................COASTAL AND OFFSHORE BUOYS................


STATION/POSITION TIME  SKY/WX   TEMP    WIND        PRES    VSBY
                                AIR SEA DIR/SP/G
                 (UTC)          (F)     (DEG/KT/KT) (MB)    (MI)
DIMNDSHOAL 41025 1450            58 74   30/ 17/ 19 1029.4R
WVE H/P(F/S)=  4/ 5 SWL H/P/D(F/S/D)=  2/ 70/ 8

CAPE LOOKOUT     1400            48      20/ 14/ 16 1029.3R
ONSLOW BAY 41036 NOT AVBL
ONSLOW BAY 41064 1408            53 64   50/ 17/ 23 1028.8R
ONSLOW BAY 41159 1443               64                N/A
WVE H/P(F/S)=  5/ 5 SWL H/P/D(F/S/D)=  2/120/12

MASNBO INL 41110 1459               53                N/A
WVE H/P(F/S)=  4/ 5 SWL H/P/D(F/S/D)=  2/130/11

WILM HARBR 41108 1456               56                N/A
WVE H/P(F/S)=  4/ 5 SWL H/P/D(F/S/D)=  2/140/11

27SE WRITB 41037 1408            57 70   70/ 16/ 23 1028.3R
FRYING PAN 41013 1450            63 71   20/ 16/ 21 1028.3R
WVE H/P(F/S)=  4/ 5 SWL H/P/D(F/S/D)=  2/150/11

SUNST NRSH 41024 1408            51 53   60/  8/ 12 1028.9R
CAPRS NRSH 41029 1408            53 54   40/ 14/ 16 1027.6R
EDISTO     41004 1450            69 71   30/ 10/ 10 1026.8R
WVE H/P(F/S)=  4/10 SWL H/P/D(F/S/D)=  3/110/10



..........OFFSHORE BUOYS BEYOND 100 NM OFFSHORE...........
.....IN A TRIANGLE---HAT TO BERMUDA TO BAHAMAS TO HAT.....


STATION/POSITION TIME  SKY/WX   TEMP    WIND        PRES    VSBY
                                AIR SEA DIR/SP/G
                 (UTC)          (F)     (DEG/KT/KT) (MB)    (MI)
150E HAT   41001 NOT AVBL
W BERMUDA  41048 1450            67 70   10/ 10/ 12 1027.2R
WVE H/P(F/S)=  5/ 8 SWL H/P/D(F/S/D)=  5/330/ 8

ATLANTIC S 41049 1450            70 74  310/  6/ 10 1024.4F
WVE H/P(F/S)=  6/ 9 SWL H/P/D(F/S/D)=  7/ 9

E BAHAMAS  41046 1450            76 78   60/ 16/ 19 1023.0R
WVE H/P(F/S)=  7/ 7 SWL H/P/D(F/S/D)=  3/11

NE BAHAMAS 41047 1450            72 74   50/  6/  8 1026.3R
WVE H/P(F/S)=  5/11 SWL H/P/D(F/S/D)=  5/ 70/11

120E CANVRL41010 NOT AVBL

END




USA.gov is the U.S. government's official web portal to all federal, state and local government web resources and services.